Location: Manitoulin Island
(45.7026°N, 82.0372°W)
Time: 10:08:45
(UTC-05:00)

ISS - Visible Passes

Search period start: 11 December 2023 00:00
Search period end: 21 December 2023 00:00
Orbit: 415 x 416 km, 51.6° (Epoch: 11 December)

Date Brightness Start Highest point End Pass type
(mag) Time Alt. Az. Time Alt. Az. Time Alt. Az.
15 Dec -0.9 07:08:27 10° S 07:11:04 21° SE 07:13:41 10° E visible
16 Dec -0.5 06:20:49 10° SSE 06:22:29 13° SE 06:24:10 10° ESE visible
17 Dec -2.8 07:06:44 10° SW 07:09:59 51° SE 07:13:15 10° ENE visible
18 Dec -2.0 06:18:16 10° SSW 06:21:16 31° SE 06:24:17 10° ENE visible
19 Dec -1.3 05:32:05 19° SSE 05:32:35 20° SE 05:35:05 10° E visible
19 Dec -3.8 07:05:40 10° WSW 07:09:00 72° NNW 07:12:21 10° ENE visible
20 Dec -3.7 06:18:56 36° SW 06:20:09 75° SSE 06:23:30 10° ENE visible
